SCP
0 0 0 0 0 0 0 0 0 0 0 0 0 0 0 0 0 0 0 0 0 0
0 0 0 0 0 0 0 0 0 0 0 0 0 0 0 0 0 0 0 0 0 -0
0 0 1 1 1 0 0 0 0 0 0 0 0 0 0 0 0 0 0 0 0 -0
0 0 0 0 1 1 0 0 0 0 0 0 0 0 0 1 0 0 0 0 0 0
0 0 0 0 0 1 1 0 1 0 0 0 0 0 0 1 1 0 0 0 0 0
0 0 0 0 0 1 1 1 1 1 0 0 0 0 1 1 1 1 1 1 0 0
0 0 0 0 1 2 1 1 1 1 1 0 0 0 0 1 1 1 1 1 1 1
1 0 0 1 1 1 1 2 1 1 1 1 0 0 0 0 0 1 1 1 1 1
0 1 1 1 1 1 1 2 1 1 1 1 1 1 0 0 0 1 1 1 1 1
-0 0 0 1 1 1 2 2 2 1 1 1 1 1 1 1 1 1 1 1 1 0
0 -0 -0 -1 0 1 1 1 2 2 1 2 1 1 1 1 1 1 1 1 1 1
2 1 -0 0 1 0 0 1 1 1 1 1 1 1 0 0 1 1 1 1 1 1
1 2 0 1 1 0 0 0 0 0 0 0 1 1 1 0 1 1 1 1 2 1
0 0 1 1 1 1 0 0 1 1 1 1 1 1 1 0 1 1 1 1 1 1
Wind_Speed_500mb
54 40 36 37 30 25 20 20 25 22 20 18 19 17 13 13 16 20 22 22 21 15
61 52 39 35 42 30 26 22 23 22 22 21 19 20 17 13 16 17 18 19 17 14
65 60 55 44 39 37 31 30 26 24 25 22 23 20 17 17 17 15 16 16 18 15
64 61 56 47 47 44 40 37 32 27 26 27 26 23 21 19 21 20 19 19 21 20
57 61 57 61 49 51 45 41 37 32 31 29 30 28 26 22 23 24 23 23 24 23
55 56 57 54 53 54 49 41 39 37 37 38 35 31 31 30 26 29 30 28 28 28
63 55 53 53 53 61 59 50 45 40 40 39 39 37 35 34 33 32 32 33 32 32
71 63 54 53 51 54 63 62 57 50 48 46 46 43 41 40 39 37 37 38 39 40
75 73 67 59 52 50 60 67 64 59 54 52 52 51 53 55 47 43 42 44 44 45
56 68 73 69 65 63 61 61 64 65 62 66 69 67 69 69 67 63 57 58 58 58
42 53 60 59 60 62 65 65 69 67 64 62 66 68 69 68 68 72 76 75 76 76
34 41 50 54 56 55 51 54 58 59 61 64 63 59 57 54 58 65 68 69 72 72
56 45 47 44 48 45 50 55 49 54 57 60 65 63 61 59 62 59 62 64 66 70
61 45 43 44 46 42 45 45 46 47 47 49 52 56 63 62 66 64 54 56 57 57
Wind_Direction_500mb
208 208 210 216 204 204 207 208 217 223 215 214 230 234 239 237 241 252 253 256 260 268
211 205 211 215 210 210 209 210 213 211 213 220 228 234 240 228 254 257 259 262 262 274
213 215 217 215 219 214 218 217 218 213 214 220 223 229 235 238 256 255 259 250 260 265
214 214 218 216 220 223 227 230 228 227 218 221 222 225 233 235 236 260 257 252 257 262
213 213 218 224 220 224 230 237 231 233 236 229 227 231 239 250 244 252 250 251 251 255
213 214 217 218 218 222 229 232 229 238 242 246 241 239 247 253 256 251 253 254 254 258
216 215 218 217 218 225 227 230 233 237 246 247 247 247 248 252 259 260 256 255 256 258
226 224 219 220 222 226 229 232 234 239 242 247 251 251 253 253 253 257 260 259 260 264
228 229 230 229 230 233 236 239 242 242 242 242 244 247 253 254 253 256 262 266 266 267
227 228 232 234 233 234 237 241 245 248 248 249 250 249 252 260 265 265 262 263 267 270
230 235 234 232 232 237 238 241 245 249 252 255 257 257 258 261 264 267 268 269 270 271
233 238 240 238 236 238 242 245 246 248 250 254 257 257 260 261 263 264 266 268 269 272
228 221 232 232 238 239 238 243 243 249 253 255 254 254 254 255 258 259 265 269 272 273
245 248 247 240 239 244 248 245 245 251 252 254 257 260 255 257 258 258 259 262 266 269
Wind_Speed_850mb
54 40 36 37 30 25 20 20 25 22 20 18 19 17 13 13 16 20 22 22 21 15
61 52 39 35 42 30 26 22 23 22 22 21 19 20 17 13 16 17 18 19 17 14
65 60 55 44 39 37 31 30 26 24 25 22 23 20 17 17 17 15 16 16 18 15
64 61 56 47 47 44 40 37 32 27 26 27 26 23 21 19 21 20 19 19 21 20
57 61 57 61 49 51 45 41 37 32 31 29 30 28 26 22 23 24 23 23 24 23
55 56 57 54 53 54 49 41 39 37 37 38 35 31 31 30 26 29 30 28 28 28
63 55 53 53 53 61 59 50 45 40 40 39 39 37 35 34 33 32 32 33 32 32
71 63 54 53 51 54 63 62 57 50 48 46 46 43 41 40 39 37 37 38 39 40
75 73 67 59 52 50 60 67 64 59 54 52 52 51 53 55 47 43 42 44 44 45
56 68 73 69 65 63 61 61 64 65 62 66 69 67 69 69 67 63 57 58 58 58
42 53 60 59 60 62 65 65 69 67 64 62 66 68 69 68 68 72 76 75 76 76
34 41 50 54 56 55 51 54 58 59 61 64 63 59 57 54 58 65 68 69 72 72
56 45 47 44 48 45 50 55 49 54 57 60 65 63 61 59 62 59 62 64 66 70
61 45 43 44 46 42 45 45 46 47 47 49 52 56 63 62 66 64 54 56 57 57
Wind_Direction_850mb
208 208 210 216 204 204 207 208 217 223 215 214 230 234 239 237 241 252 253 256 260 268
211 205 211 215 210 210 209 210 213 211 213 220 228 234 240 228 254 257 259 262 262 274
213 215 217 215 219 214 218 217 218 213 214 220 223 229 235 238 256 255 259 250 260 265
214 214 218 216 220 223 227 230 228 227 218 221 222 225 233 235 236 260 257 252 257 262
213 213 218 224 220 224 230 237 231 233 236 229 227 231 239 250 244 252 250 251 251 255
213 214 217 218 218 222 229 232 229 238 242 246 241 239 247 253 256 251 253 254 254 258
216 215 218 217 218 225 227 230 233 237 246 247 247 247 248 252 259 260 256 255 256 258
226 224 219 220 222 226 229 232 234 239 242 247 251 251 253 253 253 257 260 259 260 264
228 229 230 229 230 233 236 239 242 242 242 242 244 247 253 254 253 256 262 266 266 267
227 228 232 234 233 234 237 241 245 248 248 249 250 249 252 260 265 265 262 263 267 270
230 235 234 232 232 237 238 241 245 249 252 255 257 257 258 261 264 267 268 269 270 271
233 238 240 238 236 238 242 245 246 248 250 254 257 257 260 261 263 264 266 268 269 272
228 221 232 232 238 239 238 243 243 249 253 255 254 254 254 255 258 259 265 269 272 273
245 248 247 240 239 244 248 245 245 251 252 254 257 260 255 257 258 258 259 262 266 269